[[{"header":{"parameterUnit":"m.s-1","parameterCategory":1,"la1":30.2991,"la2":30.254,"lo1":-89.0895,"lo2":-89.0444,"dy":0.0017,"dx":0.0017,"nx":28,"ny":28,"refTime":"2025-05-01T03:00:00:Z","depth":0,"parameterNumber":2,"parameterNumberName":"U-component_of_WINDS"},"data":[0,0,0,0,0,0,0,0,0,0,0,0,0,0,0,0,0,0,0,0,0,0,0,0,0,0,0,0,0,0,0,0,0,0,0,0,0,0,0,0,0,0,0,0,0,0,0,0,0,0,0,0,0,0,0,0,0,0,-1.5513,-1.5515,0,-1.5698,-1.57,-1.5702,-1.5755,-1.5754,-1.5753,-1.5752,-1.5949,-1.5955,-1.5961,0,0,0,0,0,0,0,0,0,0,0,0,0,-1.5213,-1.5218,-1.5513,-1.5515,-1.5517,-1.5698,-1.57,-1.5703,-1.5756,-1.5754,-1.5753,-1.5752,-1.5947,-1.5954,-1.5961,0,0,0,0,0,0,0,0,0,0,0,0,0,-1.5365,-1.522,-1.5512,-1.5565,-1.5572,-1.5697,-1.57,-1.5703,-1.5756,-1.5754,-1.5753,-1.5751,-1.5944,-1.5953,-1.5962,-1.605,0,0,-1.5991,-1.5995,0,0,0,0,0,0,0,0,-1.5357,-1.5376,-1.5555,-1.5562,-1.5569,-1.5702,-1.5667,-1.582,-1.5756,-1.5686,-1.5752,-1.5751,-1.5868,-1.5884,-1.5922,-1.6059,-1.6068,-1.5991,-1.5997,-1.6001,-1.6004,0,0,0,0,0,0,0,-1.5346,-1.5369,-1.5586,-1.5558,-1.5566,-1.5583,-1.5602,-1.5696,-1.5784,-1.5692,-1.5696,-1.5717,-1.5872,-1.5913,-1.5927,-1.6071,-1.5991,-1.5999,-1.6005,-1.6009,-1.6293,-1.6295,0,0,0,0,0,0,-1.5325,-1.536,-1.558,-1.5592,-1.5457,-1.5589,-1.5611,-1.5661,-1.5783,-1.58,-1.5718,-1.5719,-1.5898,-1.5916,-1.5934,-1.6047,-1.6001,-1.601,-1.6015,-1.6291,-1.6293,-1.6295,0,0,0,0,0,0,-1.5319,-1.5345,-1.5573,-1.5477,-1.5507,-1.5596,-1.5651,-1.5665,-1.5706,-1.5802,-1.5819,-1.5743,-1.5897,-1.5921,-1.6021,-1.6054,-1.6014,-1.6022,-1.6288,-1.6291,-1.6294,-1.6271,0,0,0,0,0,0,-1.531,-1.5342,-1.5374,-1.5477,-1.5512,-1.5654,-1.5653,-1.567,-1.5721,-1.5724,-1.5831,-1.5847,-1.5898,-1.6007,-1.603,-1.6066,-1.6029,-1.6286,-1.629,-1.6293,-1.6269,-1.6273,-1.6276,0,0,0,0,0,-1.5299,-1.5361,-1.5375,-1.5402,-1.5554,-1.5656,-1.5676,-1.5732,-1.5724,-1.5758,-1.5821,-1.5843,-1.6046,-1.6017,-1.6043,-1.6082,-1.6284,-1.6289,-1.6293,-1.6268,-1.6272,-1.6276,0,0,0,0,0,0,-1.5262,-1.5375,-1.5393,-1.5489,-1.5562,-1.5665,-1.571,-1.5734,-1.5813,-1.5812,-1.588,-1.5904,-1.5999,-1.6051,-1.6016,-1.6176,-1.6166,-1.6176,-1.6138,-1.6143,-1.6146,-1.6132,-1.6037,0,0,0,0,0,-1.5264,-1.5335,-1.5432,-1.5508,-1.5544,-1.562,-1.5667,-1.5703,-1.5783,-1.5814,-1.5884,-1.5962,-1.6044,-1.6096,-1.6177,-1.6277,-1.6303,-1.6317,-1.6321,-1.6323,-1.6331,-1.6391,-1.6399,-1.631,-1.631,-1.631,0,0,-1.5271,-1.5342,-1.5383,-1.5502,-1.5563,-1.5638,-1.5646,-1.5724,-1.5781,-1.5827,-1.5925,-1.5979,-1.6071,-1.6172,-1.6221,-1.6219,-1.6361,-1.6329,-1.633,-1.6337,-1.6396,-1.6404,-1.6412,-1.6313,-1.6312,-1.6312,0,0,-1.5322,-1.5381,-1.5452,-1.5513,-1.5604,-1.5655,-1.5672,-1.5772,-1.5808,-1.5908,-1.5944,-1.6015,-1.6153,-1.6218,-1.6269,-1.6346,-1.6371,-1.637,-1.6388,-1.6445,-1.6452,-1.6459,-1.6488,-1.6497,-1.6378,-1.6378,-1.6378,0,-1.5319,-1.543,-1.5486,-1.5563,-1.5615,-1.5659,-1.5733,-1.579,-1.5904,-1.594,-1.5936,-1.6112,-1.6177,-1.6295,-1.6314,-1.6353,-1.6377,-1.6359,-1.6446,-1.6453,-1.646,-1.6489,-1.65,-1.6378,-1.6378,-1.6378,-1.6378,0,-1.5424,-1.5501,-1.5548,-1.5654,-1.5713,-1.5787,-1.5857,-1.591,-1.5942,-1.5994,-1.6097,-1.6176,-1.6274,-1.6305,-1.6337,-1.6428,-1.6424,-1.6432,-1.6425,-1.6467,-1.6496,-1.6507,-1.6377,-1.6377,-1.6377,-1.6377,0,0,-1.5455,-1.5592,-1.5609,-1.5659,-1.5764,-1.5826,-1.5904,-1.5998,-1.6043,-1.6121,-1.619,-1.6307,-1.6315,-1.6373,-1.6414,-1.6464,-1.6522,-1.6466,-1.647,-1.6475,-1.663,-1.6624,-1.6635,-1.6539,-1.6541,-1.6543,-1.6623,0,-1.552,-1.5659,-1.5712,-1.5827,-1.59,-1.5943,-1.6012,-1.6085,-1.6137,-1.6209,-1.6267,-1.6349,-1.6353,-1.6389,-1.644,-1.6504,-1.6554,-1.6499,-1.6607,-1.661,-1.6583,-1.665,-1.6643,-1.6714,-1.6634,-1.6636,-1.6637,0,-1.5614,-1.5691,-1.5812,-1.5909,-1.5942,-1.6002,-1.6094,-1.6161,-1.6247,-1.6281,-1.6346,-1.6384,-1.6471,-1.6457,-1.6579,-1.654,-1.6588,-1.6626,-1.6631,-1.6644,-1.6626,-1.6666,-1.6738,-1.6749,-1.6655,-1.6653,-1.6652,0,-1.5626,-1.5761,-1.5851,-1.5892,-1.6008,-1.6049,-1.61,-1.6184,-1.6237,-1.6319,-1.6355,-1.6445,-1.6495,-1.6566,-1.6629,-1.6613,-1.6746,-1.6737,-1.6779,-1.6778,-1.6806,-1.6803,-1.6888,-1.6834,-1.6834,-1.6834,-1.6834,0,-1.5694,-1.5766,-1.5858,-1.5913,-1.5997,-1.606,-1.6142,-1.6196,-1.627,-1.6339,-1.6383,-1.6448,-1.6526,-1.6601,-1.6651,-1.6746,-1.6768,-1.68,-1.6812,-1.6797,-1.6793,-1.6829,-1.6826,-1.6837,-1.6836,-1.6836,-1.6835,0,-1.5722,-1.5786,-1.5887,-1.5988,-1.6015,-1.6073,-1.6161,-1.6218,-1.6272,-1.6359,-1.6383,-1.6468,-1.6559,-1.6628,-1.6747,-1.6781,-1.6882,-1.6895,-1.6853,-1.6859,-1.6898,-1.6894,-1.701,-1.7029,-1.6961,-1.6962,-1.6962,0,-1.5761,-1.5818,-1.5924,-1.5973,-1.6022,-1.61,-1.6155,-1.6219,-1.6275,-1.6378,-1.6423,-1.6517,-1.6595,-1.674,-1.6814,-1.6906,-1.6922,-1.6956,-1.6936,-1.6919,-1.6924,-1.6921,-1.6928,-1.6959,-1.6959,-1.696,-1.696,0,-1.5824,-1.5853,-1.5929,-1.6017,-1.608,-1.6153,-1.6227,-1.6265,-1.6343,-1.6404,-1.6497,-1.6558,-1.6679,-1.6772,-1.6872,-1.6927,-1.6958,-1.6966,-1.6981,-1.6965,-1.6939,-1.6955,-1.6861,-1.6963,-1.6963,-1.6962,-1.6962,-1.6962,-1.586,-1.5913,-1.5997,-1.6081,-1.6143,-1.6211,-1.627,-1.6331,-1.6408,-1.651,-1.6545,-1.6641,-1.6728,-1.6864,-1.6921,-1.6999,-1.7,-1.7021,-1.7027,-1.7031,-1.703,-1.6925,-1.7017,-1.7017,-1.7017,-1.7018,-1.7018,0,-1.5927,-1.5983,-1.6059,-1.616,-1.6227,-1.6247,-1.6331,-1.6386,-1.647,-1.6547,-1.6623,-1.6731,-1.6822,-1.6904,-1.7,-1.7047,-1.7064,-1.707,-1.7068,-1.7081,-1.7024,-1.7002,-1.7055,-1.7055,-1.7055,-1.7055,-1.7055,-1.7055,-1.5969,-1.6061,-1.61,-1.6224,-1.628,-1.6373,-1.6419,-1.6484,-1.6546,-1.6663,-1.6739,-1.679,-1.6871,-1.6973,-1.7059,-1.7081,-1.7115,-1.7118,-1.7144,-1.7089,-1.7084,-1.708,-1.706,-1.7125,-1.7125,-1.7195,-1.7195,-1.7196]},{"header":{"parameterUnit":"m.s-1","parameterCategory":1,"la1":30.2991,"la2":30.254,"lo1":-89.0895,"lo2":-89.0444,"dy":0.0017,"dx":0.0017,"nx":28,"ny":28,"refTime":"2025-05-01T03:00:00:Z","depth":0,"parameterNumber":3,"parameterNumberName":"V-component_of_WINDS"},"data":[0,0,0,0,0,0,0,0,0,0,0,0,0,0,0,0,0,0,0,0,0,0,0,0,0,0,0,0,0,0,0,0,0,0,0,0,0,0,0,0,0,0,0,0,0,0,0,0,0,0,0,0,0,0,0,0,0,0,4.2107,4.2107,0,4.2094,4.2094,4.2094,4.2029,4.2028,4.2026,4.2025,4.2013,4.2014,4.2015,0,0,0,0,0,0,0,0,0,0,0,0,0,4.2077,4.2078,4.2107,4.2107,4.2107,4.2094,4.2094,4.2094,4.203,4.2028,4.2026,4.2024,4.2013,4.2014,4.2015,0,0,0,0,0,0,0,0,0,0,0,0,0,4.208,4.2078,4.2107,4.2073,4.207,4.2094,4.2094,4.2094,4.203,4.2028,4.2025,4.2023,4.2012,4.2014,4.2016,4.2072,0,0,4.2021,4.2022,0,0,0,0,0,0,0,0,4.208,4.2081,4.2078,4.2075,4.2072,4.2061,4.2079,4.2087,4.203,4.2045,4.2025,4.2022,4.2031,4.2031,4.2034,4.2072,4.2071,4.2021,4.2022,4.2023,4.2023,0,0,0,0,0,0,0,4.2079,4.2081,4.2102,4.2078,4.2074,4.2059,4.2057,4.208,4.2051,4.2044,4.2039,4.2038,4.2029,4.2032,4.2033,4.2071,4.2021,4.2022,4.2023,4.2024,4.2155,4.2157,0,0,0,0,0,0,4.2084,4.2081,4.2102,4.2102,4.207,4.2061,4.2059,4.2067,4.2051,4.2046,4.204,4.2035,4.2031,4.2031,4.2032,4.2097,4.2023,4.2024,4.2025,4.2152,4.2155,4.2158,0,0,0,0,0,0,4.2083,4.2086,4.2103,4.209,4.2091,4.2064,4.2074,4.2068,4.2071,4.2048,4.2043,4.2049,4.2029,4.203,4.2063,4.2095,4.2025,4.2027,4.2149,4.2153,4.2156,4.2227,0,0,0,0,0,0,4.2083,4.2087,4.2107,4.2091,4.2092,4.2133,4.2076,4.2069,4.2074,4.2067,4.2055,4.2051,4.2027,4.206,4.2064,4.2096,4.2028,4.2146,4.2151,4.2155,4.2221,4.2232,4.2242,0,0,0,0,0,4.2082,4.2128,4.2109,4.2112,4.2118,4.2135,4.2136,4.2107,4.2077,4.2098,4.2083,4.2051,4.2092,4.2064,4.2068,4.2101,4.2144,4.215,4.2155,4.2217,4.223,4.2241,0,0,0,0,0,0,4.215,4.2125,4.2104,4.2146,4.2143,4.2124,4.2149,4.2122,4.2128,4.2122,4.2087,4.2085,4.2122,4.2115,4.2085,4.2155,4.2112,4.2119,4.2158,4.2171,4.2181,4.2181,4.2029,0,0,0,0,0,4.217,4.2185,4.2164,4.2203,4.2203,4.2177,4.2183,4.2162,4.2157,4.2156,4.2144,4.2141,4.2153,4.2162,4.2172,4.2221,4.2217,4.2245,4.2256,4.2264,4.227,4.2294,4.2306,4.2176,4.2176,4.2176,0,0,4.2211,4.2199,4.2212,4.2216,4.2211,4.2229,4.2176,4.2197,4.2209,4.2159,4.2188,4.218,4.2175,4.2216,4.2233,4.2211,4.2305,4.2271,4.2278,4.2279,4.2301,4.2314,4.2325,4.218,4.2179,4.2178,0,0,4.2294,4.2288,4.2319,4.2315,4.2308,4.2291,4.2299,4.2284,4.2276,4.2305,4.2267,4.2283,4.2304,4.2302,4.2304,4.2387,4.2357,4.2391,4.2444,4.2468,4.2479,4.2487,4.2516,4.2527,4.2397,4.2397,4.2398,0,4.2346,4.237,4.2339,4.2362,4.2365,4.232,4.2352,4.235,4.2347,4.235,4.2326,4.2352,4.2345,4.2385,4.2405,4.2408,4.2416,4.2391,4.248,4.2488,4.2496,4.2523,4.2534,4.2401,4.2401,4.2401,4.24,0,4.2433,4.2451,4.2477,4.2475,4.2481,4.2509,4.2482,4.2492,4.2471,4.2456,4.2486,4.2477,4.2484,4.2492,4.2471,4.2528,4.2515,4.2486,4.2441,4.2513,4.2537,4.2548,4.2407,4.2406,4.2405,4.2404,0,0,4.2558,4.2538,4.2548,4.2546,4.2535,4.2548,4.2574,4.258,4.2589,4.259,4.261,4.2629,4.2602,4.2604,4.2583,4.2605,4.267,4.2573,4.2572,4.259,4.2731,4.2752,4.2764,4.2651,4.2653,4.2655,4.2731,0,4.2636,4.2677,4.265,4.2696,4.2712,4.267,4.2692,4.2689,4.2676,4.2687,4.2674,4.2687,4.2651,4.2652,4.2672,4.2658,4.2698,4.2652,4.2669,4.267,4.267,4.2777,4.2799,4.2872,4.2741,4.2742,4.2744,0,4.2733,4.2736,4.2783,4.2769,4.2775,4.2795,4.2798,4.281,4.2805,4.2794,4.2797,4.277,4.2795,4.2753,4.2786,4.2756,4.2761,4.2756,4.2758,4.2757,4.271,4.2778,4.2895,4.2905,4.2759,4.2757,4.2756,0,4.2817,4.2833,4.2863,4.2863,4.2848,4.2863,4.2858,4.285,4.2856,4.2859,4.2862,4.2869,4.2873,4.2879,4.2855,4.2827,4.2891,4.2847,4.2882,4.2883,4.2896,4.2895,4.3014,4.2903,4.2902,4.2902,4.2902,0,4.2906,4.2936,4.2901,4.2919,4.2952,4.2921,4.2954,4.2945,4.2939,4.2954,4.292,4.2936,4.2904,4.2917,4.2899,4.2928,4.293,4.2922,4.2917,4.2924,4.2925,4.2926,4.292,4.2905,4.2904,4.2904,4.2903,0,4.3005,4.2982,4.3012,4.2995,4.2991,4.3016,4.3002,4.3018,4.3004,4.3024,4.3027,4.3004,4.3018,4.2995,4.3006,4.2993,4.3034,4.3022,4.3035,4.3031,4.3067,4.3063,4.3189,4.3203,4.3085,4.3086,4.3087,0,4.3062,4.3084,4.307,4.3077,4.3074,4.3087,4.3092,4.3063,4.307,4.3066,4.3083,4.3093,4.31,4.3123,4.3108,4.3116,4.3102,4.3146,4.3103,4.311,4.3101,4.3099,4.3101,4.3154,4.3156,4.3157,4.3158,0,4.3166,4.3154,4.3162,4.3167,4.3174,4.3176,4.3176,4.3185,4.3154,4.3164,4.3177,4.3182,4.3193,4.3203,4.3207,4.3202,4.3175,4.3172,4.318,4.3187,4.3193,4.3189,4.3057,4.3168,4.3167,4.3166,4.3166,4.3165,4.3245,4.3262,4.3254,4.3265,4.3262,4.3263,4.3277,4.3264,4.3274,4.3279,4.3262,4.3279,4.3274,4.3276,4.3274,4.3287,4.3268,4.328,4.3283,4.3286,4.3291,4.3193,4.3288,4.3288,4.3288,4.3287,4.3287,0,4.3346,4.3339,4.3349,4.3349,4.3358,4.3331,4.333,4.3339,4.3354,4.3351,4.3358,4.3372,4.3382,4.3368,4.3376,4.3389,4.3377,4.3392,4.339,4.3389,4.3309,4.33,4.3402,4.3402,4.3402,4.3401,4.3401,4.3401,4.3399,4.3427,4.3414,4.344,4.3432,4.3448,4.3449,4.345,4.3447,4.3465,4.3472,4.3463,4.3456,4.3462,4.3471,4.3466,4.347,4.3489,4.3481,4.3406,4.3395,4.3384,4.3375,4.3491,4.3491,4.3559,4.356,4.356]}]]